Location: Alfortville
(48.8058°N, 2.4204°E)
Time: 19:34:26
(UTC+00:00)

Cosmos 1300 - Pass Details

Date: 24 October 2021
Orbit: 509 x 512 km, 82.5° (Epoch: 07 December)

Event Time Altitude Azimuth Distance (km) Brightness Sun altitude
Rises 17:53:31 0° 183° (S) 2,613 6.4 -12.1°
Reaches altitude 10° 17:55:38 10° 182° (S) 1,732 5.4 -12.5°
Maximum altitude 17:59:26 74° 97° (E) 539 2.6 -13.1°
Drops below altitude 10° 18:03:15 10° 13° (NNE) 1,747 5.2 -13.7°
Sets 18:05:23 0° 12° (NNE) 2,638 6.2 -14.1°
